User: anonymous   Login
Location: Space Photons Observatory
(33.2428°N, 111.5467°W)
Time: 17:30:59
(UTC-07:00)
Language:

RESURS DK-1 - Orbit

View from above orbital plane
View from above orbital plane
View from above satellite
View from above satellite

Ground track
Ground track

The orbit data is extracted from the following two-line orbital elements,

1 29228U 06021A   14354.72377136  .00001843  00000-0  15119-3 0  5357
2 29228 069.9394 250.5366 0007847 282.0630 077.9640 15.01098702471568
Epoch (UTC): 20 December 2014 17:22:13
Eccentricity: 0.0007847
inclination: 69.9394°
perigee height: 558 km
apogee height: 569 km
right ascension of ascending node: 250.5366°
argument of perigee: 282.0630°
revolutions per day: 15.01098702
mean anomaly at epoch: 77.9640°
orbit number at epoch: 47156

The dashed part of the orbit path shows where the satellite is in the earth's shadow,  

DLR